Tracking 28790 objects as of 19-Apr-2024
HD Live streaming from Space Station
objects crossing your sky now

ARABSAT 1D (ANIK D2)

Track ARABSAT 1D (ANIK D2) now!
ARABSAT 1D (ANIK D2) is classified as:


NORAD ID: 15383
Int'l Code: 1984-113B
Perigee: 36,072.9 km
Apogee: 36,288.5 km
Inclination: 14.2 °
Period: 1,455.9 minutes
Semi major axis: 42551 km
RCS: 6.6478 m2 (large)
Launch date: November 8, 1984
Source: Arab Satellite Communications Organization (AB)
Launch site: AIR FORCE EASTERN TEST RANGE (AFETR)
Your satellite tracking list
Your tracking list is empty




NASA's NSSDC Master Catalog

Two Line Element Set (TLE):
1 15383U 84113B   24109.79054892 -.00000037  00000-0  00000-0 0  9998
2 15383  14.1693 347.2137 0025324  14.7358 338.6934  0.98907153107036
Source of the keplerian elements: AFSPC